Miscellaneous Local Product
Issued by NWS North Platte, NE

Home | Current Version | Previous Version | Graphics & Text | Print | Product List | Glossary On
Versions: 1 2 3 4 5 6 7 8 9 10 11 12 13 14 15 16 17 18 19 20 21 22 23 24 25 26 27 28 29 30 31 32 33 34 35 36 37 38 39 40 41 42 43 44 45 46 47 48 49 50
405
AXUS43 KLBF 190310
MISLBF


WESTERN AND NORTH CENTRAL NEBRASKA HOURLY WEATHER ROUNDUP
NATIONAL WEATHER SERVICE NORTH PLATTE NE
1000 PM CDT MON SEP 18 2017

NOTE: "FAIR" INDICATES FEW OR NO CLOUDS BELOW 12,000 FEET WITH NO
SIGNIFICANT WEATHER AND/OR OBSTRUCTIONS TO VISIBILITY.

NOTE: STATIONS NOT REPORTING VARIABLES SUCH AS SKY/WEATHER OR
PRESSURE ARE PROVIDED BY RAWS AND APRS NETWORKS AND ARE NOT UNDER
NATIONAL WEATHER SERVICE QUALITY CONTROL.

...OBSERVATIONS IN AND NEAR THE EASTERN PANHANDLE OF NEBRASKA...

CITY           SKY/WX    TMP DP  RH WIND       PRES   REMARKS
PINE RIDGE     PTCLDY    73  42  32 S10G20    29.76F
GORDON         FAIR      65  45  49 S8        29.80S
CHADRON        CLEAR     74  38  27 S21       29.74S
ALLIANCE       CLEAR     56  46  69 SE10      29.82S
SIDNEY         CLEAR     63  37  38 SE13      29.87F
$$

...OBSERVATIONS IN NORTHERN NEBRASKA AND FAR SOUTHERN SOUTH DAKOTA...

CITY           SKY/WX    TMP DP  RH WIND       PRES   REMARKS
WINNER         FAIR      70  60  70 S16       29.78F
VALENTINE      CLEAR     68  58  70 S12       29.81S
THEDFORD       CLEAR     66  60  78 S10       29.86S
AINSWORTH      CLEAR     64  60  86 S9        29.84S
O`NEILL        CLEAR     63  62  97 SE6       29.86R
ORD            CLEAR     61  57  87 CALM      29.85F
BROKEN BOW     CLEAR     60  57  89 SE3       29.87S
BUTTE            N/A     64  60  87 S6          N/A
EWING            N/A     66  64  93 S5          N/A
$$

...OBSERVATIONS IN SOUTHWEST NEBRASKA AND FAR NORTHEAST COLORADO...

CITY           SKY/WX    TMP DP  RH WIND       PRES   REMARKS
WRAY           FAIR      66  43  42 SE7       29.89S
HOLYOKE        FAIR      68  45  42 SE12      29.87F
IMPERIAL       CLEAR     64  49  57 SE12      29.87S
OGALLALA       CLEAR     69  46  43 SE10      29.85S
NORTH PLATTE   CLEAR     60  56  86 SE7       29.86F
MCCOOK         CLEAR     67  57  70 E7        29.87S
LEXINGTON      CLEAR     67  59  75 SE6       29.88F
STAPLETON        N/A     63  58  84 CALM        N/A
$$

...OBSERVATIONS IN CENTRAL LINCOLN COUNTY AREA...

CITY           SKY/WX    TMP DP  RH WIND       PRES   REMARKS
N.P. AIRPORT   CLEAR     60  56  86 SE7       29.86F
N.P. DOWNTOWN    N/A     67  57  71 CALM        N/A
N.P. HILLCREST   N/A     66  56  71 SE8         N/A
$$

...SOME OBSERVATIONS FROM AROUND THE REGION...

CITY           SKY/WX    TMP DP  RH WIND       PRES   REMARKS
DENVER         CLEAR     66  33  29 S16       29.87S
LIMON            N/A    N/A N/A N/A MISG      29.95S
ASPEN          CLEAR     52  35  52 S6        30.11R
LARAMIE        CLOUDY    54  29  38 S12       29.99S
CASPER         CLOUDY    65  29  25 S13       29.77F
CHEYENNE       CLEAR     64  27  24 S12G21    29.95R
SCOTTSBLUFF    CLEAR     58  50  75 E7        29.81S
GRAND ISLAND   CLEAR     65  64  97 SE5       29.89S
OMAHA          MOCLDY    70  65  84 SE8       29.90S
SIOUX FALLS    CLOUDY    69  65  86 S12       29.87S
PIERRE         PTCLDY    64  54  69 SE10      29.74S
RAPID CITY     CLEAR     59  39  47 CALM      29.73S
BISMARCK       CLEAR     57  49  74 NE6       29.78S
KANSAS CITY    PTCLDY    67  66  97 SE7       29.93S
HILL CITY      CLEAR     72  59  63 E7        29.86S
WICHITA        MOCLDY    77  65  66 SE15      29.90S
DODGE CITY     CLEAR     72  63  73 S10       29.90R
OKLAHOMA CITY  CLEAR     72  66  81 SE8       29.93R
DALLAS         PTCLDY    86  71  60 SE20G26   29.91R HX  91
AMARILLO       CLEAR     72  64  76 SE13      29.96S
$$




USA.gov is the U.S. government's official web portal to all federal, state and local government web resources and services.